Location: Home
(42.5358°N, 72.7383°W)
Time: 18:44:02
(UTC-05:00)

A-11 Canister half - Pass Details

Date: 07 December 2021
Orbit: 1524 x 1684 km, 47.3° (Epoch: 23 January)

Event Time Altitude Azimuth Distance (km) Brightness Sun altitude
Rises 07:12:00 0° 296° (WNW) 4,911 - -0.1°
Exits shadow 07:12:01 - 296° (WNW) 4,908 10.9 -0.1°
Reaches altitude 10° 07:15:22 10° 291° (WNW) 3,904 10.5 0.4°
Maximum altitude 07:24:34 45° 223° (SW) 2,109 9.8 1.9°
Drops below altitude 10° 07:33:29 10° 155° (SSE) 3,774 12.3 3.2°
Sets 07:36:41 0° 149° (SSE) 4,735 13.0 3.7°
